Theta_e
305 305 306 313 313 313 314 309 314 311 310 313 311 312 311 310 312 312 312 314 315 317 315 314 314 314 314 313 315 317 316 321 324 322 320 323 326 330 328 328 327 325 324 322
305 304 305 309 314 313 309 312 314 312 311 314 313 312 312 311 313 313 313 314 314 315 316 316 313 314 313 314 316 318 319 322 326 325 325 325 329 328 329 326 326 327 325 322
304 304 305 306 313 313 312 312 316 314 312 312 314 313 314 315 312 312 313 314 314 317 317 315 313 313 315 315 315 320 321 325 325 331 329 328 330 329 327 327 329 326 324 319
302 302 303 306 313 313 311 311 315 314 314 313 314 315 317 317 314 313 313 313 315 318 317 316 313 313 316 317 316 319 321 325 325 325 325 327 327 328 323 328 327 327 325 321
301 302 303 305 313 313 310 310 312 314 316 313 315 315 316 317 316 314 316 317 316 317 317 313 314 314 317 316 314 316 320 326 323 323 323 325 326 325 323 323 326 325 324 324
301 301 303 303 310 313 311 308 308 311 315 316 317 317 317 319 319 316 315 315 318 317 317 312 313 314 315 316 318 318 321 323 323 323 320 321 324 324 326 325 324 323 325 323
301 301 302 304 313 312 311 308 310 312 313 313 315 316 319 320 319 320 316 316 317 317 314 314 315 317 316 319 316 316 319 322 323 326 322 324 321 317 319 322 323 324 324 322
301 301 302 303 305 312 312 307 310 313 315 315 315 313 317 316 316 316 320 317 315 317 319 316 319 322 322 319 315 319 317 321 324 326 323 322 321 317 319 320 320 319 321 322
301 301 301 303 308 311 312 310 309 310 314 314 313 316 316 318 318 317 313 311 310 314 322 323 321 323 325 324 320 316 319 320 324 324 327 327 319 316 315 319 321 316 317 317
300 300 301 303 306 311 312 311 311 310 313 312 311 314 315 316 316 315 313 315 315 316 324 325 323 323 322 324 325 323 323 324 326 326 328 323 316 315 315 322 322 315 315 316
300 300 301 303 306 311 312 310 311 310 313 313 312 310 313 312 317 320 313 317 318 319 325 325 325 325 322 324 322 322 323 322 323 325 326 325 315 314 319 317 315 315 315 314
300 300 301 304 307 311 311 310 311 310 311 314 311 311 310 308 309 312 310 314 317 320 320 319 319 322 320 322 327 320 325 322 322 323 323 316 314 314 314 315 314 314 312 311
300 301 301 304 307 311 311 310 308 309 312 314 313 313 311 309 308 310 315 312 314 315 311 318 319 320 318 320 320 319 319 319 317 317 315 314 314 312 313 314 313 311 309 309
299 300 301 303 306 310 311 311 309 311 314 317 315 311 311 311 309 309 310 311 311 311 314 318 320 323 313 320 317 317 314 313 315 315 314 312 312 312 312 309 308 308 307 307
299 300 301 303 308 310 311 311 311 311 315 318 315 312 311 310 309 308 309 310 311 314 318 320 321 317 316 314 315 317 312 314 316 318 314 314 312 310 309 309 308 307 307 306
299 299 301 304 310 310 311 311 311 312 310 316 315 311 311 311 311 310 311 312 313 315 319 319 316 313 315 317 319 318 312 312 313 314 311 311 310 308 308 308 306 305 304 304
299 300 303 307 310 311 311 312 310 311 311 313 313 314 310 309 312 312 313 313 314 315 316 318 316 315 314 318 322 316 312 310 310 310 310 309 309 309 306 306 305 305 302 302
299 302 305 310 311 310 309 308 308 310 308 308 309 312 312 309 314 314 310 315 315 313 315 314 317 313 315 317 318 312 310 309 309 306 308 308 306 305 303 301 302 301 300 299
302 305 310 309 309 308 308 309 308 308 309 308 308 312 315 309 310 311 311 311 316 312 317 317 314 318 315 317 316 311 309 309 306 304 304 304 303 301 300 301 300 300 299 297
306 309 307 306 306 309 308 306 308 305 305 307 311 311 312 309 310 309 312 309 312 310 313 309 314 316 315 313 311 309 308 304 303 302 302 301 301 300 300 301 299 299 297 296
308 305 304 304 307 305 306 308 311 309 308 309 309 310 311 307 311 309 306 308 307 314 312 313 314 314 311 305 308 307 303 302 303 304 300 301 300 300 300 298 296 295 295 294
306 304 304 302 303 304 307 309 305 307 308 308 309 310 308 304 305 306 305 308 307 312 307 311 312 307 302 305 306 304 303 303 303 302 302 300 300 299 296 295 294 295 295 295
304 303 304 305 302 309 307 308 306 307 307 305 305 306 304 303 302 302 303 307 308 304 308 310 307 301 302 302 301 299 300 302 302 301 300 297 295 296 295 294 295 295 294 294
301 302 306 308 308 305 305 305 304 303 304 305 304 304 305 303 303 303 301 303 303 306 306 303 302 300 300 302 298 297 298 298 297 296 295 295 294 294 295 295 295 294 292 293
299 302 309 306 300 298 299 300 302 303 304 303 304 303 302 302 300 302 302 304 303 304 304 301 298 297 298 298 296 296 296 296 295 294 294 293 293 292 292 293 293 293 292 291
297 299 301 299 300 298 299 300 302 302 304 301 300 302 301 303 301 302 299 300 302 302 299 295 293 296 298 296 294 294 294 294 293 293 292 292 291 290 289 290 290 290 290 288
299 299 297 299 301 300 300 301 301 304 304 305 303 303 302 302 303 300 299 301 300 294 293 292 294 295 297 294 293 292 292 291 291 290 289 288 288 288 286 283 284 286 285 284
Wind_Speed
18 16 23 10 23 21 25 5 3 24 37 6 3 7 6 7 6 12 12 6 9 9 13 13 17 16 8 15 17 9 7 3 3 2 9 12 3 2 3 1 2 0 3 2
21 19 23 15 24 29 14 5 3 22 20 6 7 5 11 12 7 9 8 11 12 12 10 7 18 16 11 8 8 13 9 4 2 2 2 4 4 6 6 3 4 3 3 3
26 22 24 24 22 34 18 3 4 3 3 3 7 12 12 14 10 16 11 5 9 11 13 15 10 13 10 11 12 13 4 3 4 3 2 5 9 12 7 4 1 2 3 6
26 24 25 32 23 36 14 2 3 5 6 8 10 7 4 6 5 10 11 5 15 13 8 17 13 10 8 6 12 11 5 5 6 13 14 13 14 11 7 8 8 4 3 6
25 25 27 29 30 36 6 5 3 3 3 14 16 16 8 17 15 7 7 9 17 16 14 8 10 10 10 7 11 8 2 5 7 5 7 8 12 11 10 10 11 7 8 7
26 27 29 26 20 31 2 2 2 1 2 7 10 10 15 11 5 12 15 17 11 17 20 8 3 14 9 10 12 10 5 3 3 2 6 3 3 9 12 11 9 7 11 8
26 26 24 27 18 34 5 5 4 3 4 5 9 13 9 8 6 13 12 14 13 12 15 4 4 2 6 6 13 12 10 5 4 2 1 1 2 3 7 12 8 15 12 7
28 26 21 24 30 36 9 7 4 3 2 4 14 10 2 2 3 2 5 10 8 2 5 4 4 2 4 4 5 5 7 6 1 2 2 5 3 3 4 6 12 8 8 10
30 27 24 28 12 27 20 10 10 2 1 3 6 3 1 1 2 2 1 1 4 2 3 3 4 4 3 3 2 4 2 7 1 3 2 4 1 2 5 3 4 7 9 8
31 28 23 24 15 27 21 6 18 3 2 3 5 2 2 2 1 3 2 2 2 3 5 4 3 3 4 5 6 4 3 1 6 7 2 5 2 2 4 4 3 7 7 11
31 27 22 22 20 26 24 7 16 7 3 2 2 4 2 3 2 2 2 2 2 2 4 2 2 3 5 4 6 6 5 5 3 3 2 6 4 3 3 2 3 4 8 10
30 26 21 20 17 24 26 4 14 23 2 1 1 5 4 4 1 3 0 2 2 1 3 1 1 2 4 5 4 10 5 6 5 6 5 2 3 3 2 2 3 5 11 12
29 27 21 19 16 21 25 9 12 6 1 3 2 4 7 4 4 5 3 1 2 2 1 1 1 2 1 4 4 4 4 12 3 5 5 4 4 3 2 3 7 9 9 12
30 27 22 19 13 19 26 10 15 7 2 3 3 3 2 3 5 8 4 2 2 3 2 2 2 1 3 3 1 2 2 8 6 1 2 3 3 5 6 9 10 10 9 9
30 26 22 18 10 19 26 16 14 17 2 1 2 2 1 2 6 10 10 4 3 3 2 2 2 1 1 2 3 2 4 5 5 4 8 5 5 9 10 12 10 9 14 11
30 26 20 15 13 21 12 3 12 19 4 1 1 2 1 1 6 6 4 2 1 1 1 2 2 1 1 3 4 3 6 4 3 3 5 6 10 10 9 11 11 9 11 11
26 22 16 13 20 23 2 2 2 22 19 1 2 1 1 4 2 1 2 2 1 1 1 1 2 2 2 1 3 4 7 7 6 10 15 9 5 6 10 11 10 13 12 14
25 16 15 19 23 13 2 1 11 20 7 2 3 1 1 2 1 2 2 1 2 3 1 1 0 1 1 3 5 5 7 8 6 6 4 8 12 14 10 10 12 12 10 9
15 15 27 20 7 3 5 11 10 7 3 3 2 4 2 1 1 2 2 2 2 1 1 1 2 2 3 5 4 7 9 6 10 8 9 11 12 11 9 9 8 12 8 8
21 26 3 3 6 20 20 3 1 3 2 2 2 1 2 1 1 1 0 2 1 1 0 2 2 3 4 1 2 5 8 14 14 11 6 9 9 9 7 7 7 9 7 7
4 3 2 7 29 4 2 2 2 1 1 3 3 3 3 1 2 2 1 1 1 1 1 2 2 3 2 6 5 4 10 10 7 5 8 7 12 12 11 9 9 8 10 8
9 11 10 7 3 3 3 2 1 3 5 2 4 2 3 2 1 3 1 2 1 2 1 1 3 1 2 3 4 6 8 8 8 9 13 14 13 10 11 10 9 11 16 18
12 3 3 3 0 4 8 9 3 4 5 4 3 3 3 2 2 3 2 3 2 1 2 3 4 2 3 4 5 7 7 9 13 14 13 17 14 18 16 10 17 19 17 16
2 2 5 4 5 6 4 4 5 3 5 8 5 3 2 2 3 3 4 1 2 2 3 5 1 4 5 5 4 6 7 11 13 13 13 14 14 12 18 18 19 19 15 14
2 1 3 2 3 4 3 3 4 2 8 7 5 3 3 2 3 3 3 3 4 5 4 2 3 6 6 6 7 9 9 10 11 11 12 13 16 15 15 18 18 19 18 16
1 3 3 2 3 1 1 1 4 1 8 2 3 4 3 2 4 4 6 7 6 3 3 2 4 6 6 8 7 7 8 10 10 10 14 15 15 14 16 19 18 17 16 15
3 3 3 2 2 2 1 1 1 6 6 3 3 4 4 4 3 3 4 5 2 3 2 2 4 6 9 10 9 8 9 10 12 14 16 16 21 23 19 10 16 17 17 18
Wind_Direction
313 273 313 259 208 193 176 140 162 163 156 180 193 219 194 253 203 206 233 248 217 205 187 219 226 216 205 192 137 178 167 281 316 301 264 217 243 261 248 24 91 49 121 134
314 310 312 336 216 187 143 161 126 166 168 201 212 223 239 233 206 201 203 214 213 205 205 235 221 214 216 191 140 161 177 222 197 297 221 106 186 251 243 335 22 252 58 172
334 323 308 309 223 186 164 172 145 148 208 233 221 223 245 239 212 232 212 227 206 209 225 231 208 231 191 161 174 174 131 203 256 271 160 125 150 214 207 232 136 319 106 133
338 315 308 314 207 187 159 194 168 159 181 217 226 240 267 215 215 217 214 226 215 206 222 222 214 194 148 174 186 173 189 256 235 235 142 156 166 181 204 207 229 203 237 144
332 319 315 342 190 189 161 143 151 175 206 202 210 229 244 255 253 215 199 215 202 223 235 188 185 185 168 182 181 182 325 292 318 134 145 162 175 188 204 214 215 252 284 297
340 331 322 314 229 191 141 130 99 287 278 222 206 221 225 229 213 207 219 201 227 215 233 198 242 179 187 171 180 171 222 255 305 36 144 162 283 202 200 215 228 221 226 236
335 332 316 323 203 200 154 159 112 148 238 262 260 258 221 224 277 255 202 194 213 218 235 253 48 69 197 215 169 187 193 231 289 12 133 161 241 43 225 213 209 214 231 230
333 333 317 299 298 209 195 167 138 161 244 229 266 274 155 34 257 248 200 174 201 114 53 61 54 29 9 78 52 210 196 195 306 150 244 302 293 207 175 175 242 218 204 211
331 333 318 310 240 202 197 183 162 127 115 221 311 3 128 343 268 140 55 208 276 276 90 130 195 166 118 177 28 2 40 201 167 351 192 209 55 16 333 357 283 356 210 171
333 330 313 311 318 206 199 187 197 155 191 257 318 293 135 194 279 82 273 125 101 337 168 176 134 134 124 159 154 153 109 153 222 230 302 308 94 135 298 129 248 333 336 137
331 324 309 314 330 210 199 199 194 187 201 243 344 161 129 252 237 143 164 123 217 134 193 119 167 135 196 143 171 165 157 156 171 133 136 268 132 47 173 207 356 355 59 106
324 321 314 311 330 211 202 168 203 204 264 10 266 276 259 258 244 129 235 337 204 120 94 150 149 177 148 172 183 171 172 172 178 184 206 153 76 103 344 94 113 65 99 106
322 321 309 310 321 211 202 171 162 148 259 257 189 217 182 187 196 182 131 234 256 74 355 107 104 151 304 162 203 132 193 199 197 138 197 182 164 96 337 106 108 96 103 113
320 316 305 300 302 212 200 176 187 186 204 237 130 123 143 177 178 169 133 93 135 78 349 66 55 355 47 330 256 136 185 149 177 150 131 73 278 167 137 96 94 92 85 105
316 311 298 289 255 204 200 201 204 198 300 11 90 102 53 251 191 185 172 184 198 176 95 91 202 156 120 327 340 223 194 181 167 213 177 178 171 153 126 118 116 110 115 105
311 300 282 263 210 189 160 198 219 212 216 268 124 23 54 245 153 144 129 110 44 330 179 172 165 74 166 180 203 225 158 95 54 155 99 98 113 111 118 121 122 115 110 111
300 288 263 230 191 177 172 201 172 193 190 183 112 171 33 336 335 40 115 153 146 329 183 222 150 184 182 260 215 165 135 114 93 104 102 80 122 138 118 118 111 108 96 92
292 251 220 184 171 174 216 70 142 156 108 68 124 104 170 341 146 109 322 153 170 19 72 264 23 114 239 252 234 135 120 116 111 53 19 120 111 102 98 100 109 101 100 102
233 199 160 140 167 142 151 140 126 92 110 123 121 141 160 357 50 25 38 337 104 346 230 147 324 192 225 237 227 157 153 150 130 72 69 95 105 112 112 118 110 112 114 107
167 139 128 146 166 129 117 120 107 34 13 97 134 104 119 59 125 65 114 7 95 138 42 325 205 257 303 296 6 175 143 131 127 116 112 114 116 124 121 119 113 115 116 119
98 106 98 113 135 103 70 121 182 151 92 167 161 151 127 270 131 131 9 150 22 141 183 239 250 254 225 358 48 78 120 139 157 99 112 115 135 141 127 107 104 109 116 119
127 118 112 116 86 51 101 180 101 198 190 120 140 126 110 168 142 103 333 110 80 208 112 274 252 227 32 29 83 94 120 137 127 123 121 126 126 120 115 114 111 107 118 125
111 91 104 117 356 150 181 182 195 178 165 171 152 120 133 134 74 71 97 108 160 33 198 242 242 127 82 63 79 78 86 100 103 103 105 105 103 107 116 113 117 120 117 125
70 134 133 167 182 214 186 169 159 166 129 137 117 106 109 124 69 140 98 71 106 142 229 236 173 149 119 130 95 101 102 104 108 110 107 104 104 98 102 111 124 120 112 115
98 256 141 157 84 38 25 57 103 101 145 129 113 74 89 64 93 85 120 146 224 213 228 186 141 119 117 117 108 112 113 115 113 110 109 104 104 100 91 102 112 114 113 109
59 56 92 63 84 75 96 37 127 153 150 87 69 115 103 127 137 151 205 157 219 227 156 167 120 125 122 111 106 103 104 107 104 100 100 104 105 107 104 101 98 101 106 105
36 56 19 44 40 109 125 137 145 169 153 130 130 116 168 115 158 217 191 208 183 151 117 103 121 134 124 115 107 101 100 100 97 92 93 101 114 116 102 88 93 102 104 107